WA2GUG Weather Reports


time (UTC)temp
C
wind
direction
speed
KPH
gust
KPH
rain 1hr
cm
rain 24hr
cm
rain mn
cm
humidity
%
barometer
mb
20210927072623 8 144 0.0 0.0 0.00 0.00 0.00 99 1011.0
20210927072123 8 173 0.0 0.0 0.00 0.00 0.00 99 1011.0
20210927071623 8 52 0.0 0.0 0.00 0.00 0.00 99 1011.0
20210927071123 8 348 0.0 0.0 0.00 0.00 0.00 99 1011.0
20210927065623 7 33 0.0 1.6 0.00 0.00 0.00 99
20210927063624 7 20 0.0 0.0 0.00 0.00 0.00 99 1011.0
20210927062623 8 90 0.0 0.0 0.00 0.00 0.00 99 1011.0
20210927055624 8 337 0.0 1.6 0.00 0.00 0.00 99 1011.0
20210927054623 8 45 0.0 1.6 0.00 0.00 0.00 99 1011.0
20210927054123 8 84 0.0 0.0 0.00 0.00 0.00 99 1000.0
20210927053624 8 22 0.0 0.0 0.00 0.00 0.00 99 1012.0
20210927052623 8 95 0.0 0.0 0.00 0.00 0.00 99 1011.0
20210927050623 9 225 0.0 0.0 0.00 0.00 0.00 99 1011.0
20210927045623 9 45 0.0 0.0 0.00 0.00 0.00 99 1011.0
20210927044123 9 48 0.0 0.0 0.00 0.00 0.00 99
20210927043624 10 56 0.0 0.0 0.00 0.00 0.00 99 1011.0
20210927043123 10 61 0.0 0.0 0.00 0.00 0.00 99 1011.0
20210927040624 10 67 0.0 159.3 0.00 0.00 0.00 99 1011.0
20210927034123 11 273 0.0 0.0 0.00 0.00 0.00 99
20210927032623 11 270 0.0 0.0 0.00 0.00 0.00 99 1011.0
20210927031623 11 243 0.0 0.0 0.00 0.00 0.00 99
20210927031123 11 234 0.0 0.0 0.00 0.00 0.00 99 1011.0
20210927030124 11 41 0.0 0.0 0.00 0.00 0.00 99 1011.0
20210927025624 11 206 0.0 0.0 0.00 0.00 0.00 99 1011.0
20210927024623 11 341 0.0 0.0 0.00 0.00 0.00 99 1011.0
20210927024123 11 78 0.0 0.0 0.00 0.00 0.00 99 3379.0
20210927022625 11 90 0.0 0.0 0.00 0.00 0.00 92 1011.0
20210927021623 10 33 0.0 0.0 0.00 0.00 0.00 90 1011.0
20210927020123 10 331 0.0 0.0 0.00 0.00 0.00 99 1011.0
20210927015623 10 315 0.0 0.0 0.00 0.00 0.00 99
20210927014622 10 90 0.0 1.6 0.00 0.00 0.00 99 1011.0
20210927014123 10 45 0.0 1.6 0.00 0.00 0.00 99 1011.0
20210927012623 10 120 0.0 0.0 0.00 0.00 0.00 99 1011.0
20210927011622 11 112 0.0 0.0 0.00 0.00 0.00 99 1011.0
20210927011123 11 52 0.0 0.0 0.00 0.00 0.00 99 1011.0
20210927005623 11 82 0.0 0.0 0.00 0.00 0.00 99 1011.0
20210927004125 11 212 0.0 0.0 0.00 0.00 0.00 99 1011.0
20210927003124 11 64 0.0 0.0 0.00 0.00 0.00 99
20210927002624 11 123 0.0 0.0 0.00 0.00 0.00 99 1011.0
20210926235123 12 279 0.0 3.2 0.00 0.00 0.00 99 1010.0
20210926234623 12 40 1.6 3.2 0.00 0.00 0.00 99 1010.0
20210926234126 12 45 1.6 3.2 0.00 0.00 0.00 99 1010.0
20210926233623 12 90 0.0 3.2 0.00 0.00 0.00 99 1010.0
20210926232623 12 37 0.0 1.6 0.00 0.00 0.00 99 1010.0
20210926232124 12 270 0.0 1.6 0.00 0.00 0.00 99 1010.0
20210926231622 13 112 0.0 1.6 0.00 0.00 0.00 99 1010.0
20210926221124 21 175 0.0 1.6 0.00 0.00 0.00 87 1010.0
20210926215122 28 270 0.0 1.6 0.00 0.00 0.00 74
20210926211125 28 247 3.2 9.7 0.00 0.00 0.00 52 1010.0
20210926205623 28 225 3.2 9.7 0.00 0.00 0.00 63 5687.0
20210926203625 30 326 3.2 8.0 0.00 0.00 0.00 78 1009.0
20210926202122 31 261 3.2 6.4 0.00 0.00 0.00 64 1009.0
20210926201624 31 101 3.2 11.3 0.00 0.00 0.00 86
20210926201123 30 0 4.8 11.3 0.00 0.00 0.00 69 1033.0
20210926185623 29 324 3.2 12.9 0.00 0.00 0.00 60 1009.0
20210926184122 28 127 1.6 9.7 0.00 0.00 0.00 77 1009.0
20210926182623 31 337 3.2 4.8 0.00 0.00 0.00 72 1009.0
20210926171122 27 202 4.8 9.7 0.00 0.00 0.00 61 1010.0
20210926164622 27 202 3.2 6.4 0.00 0.00 0.00 68 970.0
20210926164122 27 230 3.2 9.7 0.00 0.00 0.00 82 1010.0
20210926163124 28 52 4.8 9.7 0.00 0.00 0.00 70 1224.0
20210926162622 27 345 3.2 8.0 0.00 0.00 0.00 71 1010.0
20210926154122 21 135 3.2 9.7 0.00 0.00 0.00 74 1010.0
20210926144122 23 219 4.8 9.7 0.00 0.00 0.00 77 1010.0
20210926143623 24 236 3.2 8.0 0.00 0.00 0.00 70
20210926132622 21 282 3.2 11.3 0.00 0.00 0.00 88 1010.0
20210926132122 21 33 3.2 11.3 0.00 0.00 0.00 79 1010.0
20210926131121 21 120 3.2 8.0 0.00 0.00 0.00 90 1010.0
20210926125622 17 0 3.2 6.4 0.00 0.00 0.00 99 1010.0
20210926125122 16 277 1.6 6.4 0.00 0.00 0.00 99 1010.0
20210926124621 16 337 1.6 6.4 0.00 0.00 0.00 99 1010.0
20210926124122 16 73 3.2 4.8 0.00 0.00 0.00 99 1010.0
20210926121621 13 78 1.6 4.8 0.00 0.00 0.00 99 1010.0
20210926120622 13 18 1.6 3.2 0.00 0.00 0.00 99 1010.0
20210926120122 12 90 0.0 1.6 0.00 0.00 0.00 99 969.0
20210926114622 12 112 0.0 3.2 0.00 0.00 0.00 99
20210926111623 12 75 1.6 4.8 0.00 0.00 0.00 99
20210926111122 12 11 0.0 3.2 0.00 0.00 0.00 99 1010.0
20210926110621 12 45 1.6 3.2 0.00 0.00 0.00 99 2184.0
20210926105122 12 292 0.0 3.2 0.00 0.00 0.00 99 1010.0
20210926104621 12 45 1.6 3.2 0.00 0.00 0.00 99 1010.0
20210926104122 12 95 1.6 3.2 0.00 0.00 0.00 99 1010.0
20210926102621 12 67 0.0 1.6 0.00 0.00 0.00 99 1010.0
20210926101621 12 9 0.0 4.8 0.00 0.00 0.00 99
20210926101121 12 27 0.0 3.2 0.00 0.00 0.00 99 1010.0
20210926095623 13 22 0.0 9.7 0.00 0.00 0.00 99 2165.0
20210926093622 13 76 0.0 3.2 0.00 0.00 0.00 99 1010.0
20210926092622 13 195 1.6 6.4 0.00 0.00 0.00 99 1010.0
20210926085621 13 7 3.2 8.0 0.00 0.00 0.00 99
20210926085122 14 225 3.2 8.0 0.00 0.00 0.00 99 1010.0
20210926084122 14 54 1.6 4.8 0.00 0.00 0.00 99 1010.0
20210926083122 14 180 1.6 4.8 0.00 0.00 0.00 99 1010.0
20210926082622 14 52 1.6 4.8 0.00 0.00 0.00 99 1010.0
20210926082123 14 5 1.6 4.8 0.00 0.00 0.00 99 1010.0
20210926081122 14 61 1.6 8.0 0.00 0.00 0.00 99 1009.0
20210926075621 13 22 1.6 4.8 0.00 0.00 0.00 99 1009.0
20210926075126 13 90 1.6 4.8 0.00 0.00 0.00 99
20210926074122 13 45 0.0 4.8 0.00 0.00 0.00 99 980.0